Location: ??????
(41.3164°N, 22.6615°E)
Time: 02:10:02
(UTC+00:00)

H-2A R/B - Pass Details

Date: 16 October 2021
Orbit: 732 x 837 km, 98.2° (Epoch: 02 December)

Event Time Altitude Azimuth Distance (km) Brightness Sun altitude
Rises 16:41:57 0° 170° (S) 3,291 5.2 -11.1°
Reaches altitude 10° 16:44:16 10° 172° (S) 2,380 4.5 -11.5°
Maximum altitude 16:49:32 74° 258° (WSW) 856 2.4 -12.5°
Drops below altitude 10° 16:54:59 10° 344° (NNW) 2,447 4.8 -13.5°
Sets 16:57:23 0° 346° (NNW) 3,392 5.5 -14.0°
